Location: York
(31.8935°S, 116.7682°E)
Time: 11:26:37
(UTC+08:00)

deb Explorer IX - Pass Details

Date: 30 September 2022
Orbit: 533 x 1057 km, 38.8° (Epoch: 01 December)

Event Time Altitude Azimuth Distance (km) Brightness Sun altitude
Rises 00:40:05 0° 246° (WSW) 2,864 - -54.4°
Reaches altitude 10° 00:42:29 10° 245° (WSW) 1,900 - -54.3°
Maximum altitude 00:46:48 84° 156° (SSE) 557 - -54.0°
Drops below altitude 10° 00:50:50 10° 67° (ENE) 1,786 - -53.7°
Sets 00:53:02 0° 66° (ENE) 2,675 - -53.5°
